Regional Weather Roundup
Issued by NWS

Home | Current Version | Previous Version | Text Only | Print | Product List | Glossary Off
Versions: 1 2 3 4 5 6 7 8 9 10 11 12 13 14 15 16 17 18 19 20 21 22 23 24 25 26 27 28 29 30 31 32 33 34 35 36 37 38 39 40 41 42 43 44 45 46 47 48 49 50

925
ASUS43 KIND 171709
RWRIN

WEATHER ROUNDUP FOR INDIANA
NATIONAL WEATHER SERVICE INDIANAPOLIS IN
100 PM EDT TUE OCT 17 2017

NOTE: "FAIR" INDICATES FEW OR NO CLOUDS BELOW 12,000 FEET WITH NO
SIGNIFICANT WEATHER AND/OR OBSTRUCTIONS TO VISIBILITY.

* - STATION DOES NOT REPORT WEATHER SUCH AS PRECIPITATION OR FOG.

+ - STATION NOT QUALITY CONTROLLED BY THE NATIONAL WEATHER SERVICE.
    USE DATA WITH CAUTION...ESPECIALLY DEWPOINT AND RELATIVE
    HUMIDITY OBSERVATIONS.

INZ001>003-010>013-019-020-171800-
NORTHWEST INDIANA

CITY           SKY/WX    TMP DP  RH WIND       PRES   REMARKS
GARY /AIRPORT/ MOSUNNY   66  39  37 SW14G25   30.22S
KNOX *+        SUNNY     64  41  42 SW16G23   30.24S
LA PORTE +     SUNNY     64  44  48 SW13G20   30.23S
MICHIGAN CITY+ SUNNY     64  43  45 SW16      30.22S
MONTICELLO +   SUNNY     64  38  38 SW18G24   30.27F
RENSSELAER +   SUNNY     64  27  24 SW17G24   30.26F
VALPARAISO     SUNNY     67  43  41 SW17G29   30.23S

$$

LMZ046-743>745-171800-
SOUTHERN LAKE MICHIGAN

STATION/POSITION TIME  TEMP    WIND        PRES    WAVE
                       AIR SEA DIR/SP/G            HT
                 (UTC) (F)     (DEG/KT/KT) (MB)    (FT)
BURNS HARBOR     1640   63     220/ 17/ 24 1023.4F
MICHIGAN CITY    1640   62     200/ 15/ 16   N/A
5NW MICH CITY    1700   61 57  230/ 12/ 16   N/A     3

$$

INZ004-005-014>016-021>024-171800-
NORTH CENTRAL INDIANA

CITY           SKY/WX    TMP DP  RH WIND       PRES   REMARKS
ELKHART        SUNNY     64  41  42 SW16G22   30.23F
GOSHEN         SUNNY     63  41  44 SW18G25   30.24F
LOGANSPORT +   SUNNY     63  39  42 SW17      30.29F
PERU/GRISSOM   SUNNY     64  40  42 SW20      30.28F
SOUTH BEND     SUNNY     64  42  44 SW18      30.23F
WARSAW +       SUNNY     63  41  45 SW12G18   30.25F

$$

INZ006>009-017-018-025>027-171800-
NORTHEAST INDIANA

CITY           SKY/WX    TMP DP  RH WIND       PRES   REMARKS
AUBURN +       SUNNY     63  37  39 SW12G17   30.26F
FORT WAYNE     MOSUNNY   65  37  35 W18G26    30.27F
HUNTINGTON +   SUNNY     63  37  37 SW13G22   30.27F
KENDALLVILLE + SUNNY     64  41  44 SW14G21   30.26S

$$

INZ028-029-035-036-043>045-051>053-171800-
WEST CENTRAL INDIANA

CITY           SKY/WX    TMP DP  RH WIND       PRES   REMARKS
GREENCASTLE +  SUNNY     61  37  41 S6        30.33F
LAFAYETTE      NOT AVBL
TERRE HAUTE    SUNNY     63  38  39 SW10      30.34F

$$

INZ030>032-037>040-046>048-054>057-064-065-171800-
CENTRAL INDIANA

CITY           SKY/WX    TMP DP  RH WIND       PRES   REMARKS
CP ATTERBURY + SUNNY     63  37  39 SW8       30.35F
COLUMBUS       MOSUNNY   61  34  36 SW12      30.36F
FRANKFORT +    SUNNY     67  41  39 SW13G20   30.31F
GREENWOOD *+   SUNNY     67  41  38 SW9       30.35F
INDIANAPOLIS   MOSUNNY   63  40  42 S14       30.33F
-EAGLE CREEK   SUNNY     62  37  39 SW12      30.31F
KOKOMO +       SUNNY     65  41  41 SW17      30.30F
MT COMFORT *+  SUNNY     63  45  51 SW12      30.32F
SHELBYVILLE    SUNNY     65  37  35 SW10      30.33F
ZIONSVILLE +   SUNNY     62  40  45 S13G20    30.31F

$$

INZ033-034-041-042-049-050-058-059-171800-
EAST CENTRAL INDIANA

CITY           SKY/WX    TMP DP  RH WIND       PRES   REMARKS
MUNCIE         SUNNY     65  38  36 SW12G18   30.31F
RICHMOND +     SUNNY     61  37  41 SW9G18    30.34F

$$

INZ060-061-067>069-081>083-085>088-171800-
SOUTHWEST INDIANA

CITY           SKY/WX    TMP DP  RH WIND       PRES   REMARKS
EVANSVILLE     SUNNY     63  40  42 S8        30.36F
HUNTINGBURG +  SUNNY     62  38  40 S8        30.36F
WASHINGTON +   SUNNY     64  34  32 SW7       30.35F

$$

INZ062-063-066-070>080-084-089>092-171800-
SOUTH CENTRAL AND SOUTHEAST INDIANA

CITY           SKY/WX    TMP DP  RH WIND       PRES   REMARKS
BLOOMINGTON    SUNNY     63  37  38 S8        30.35F
MADISON *+     SUNNY     63  34  34 S7        30.38F
NORTH VERNON + SUNNY     63  36  36 S7        30.36F
SEYMOUR +      SUNNY     66  41  39 SW7       30.35F

$$





USA.gov is the U.S. government's official web portal to all federal, state and local government web resources and services.